Location: Tamazert
(32.6352°N, 5.2072°W)
Time: 23:11:51
(UTC+00:00)

COSMOS 2428 - Pass Details

Date: 22 May 2022
Orbit: 847 x 854 km, 70.9° (Epoch: 24 June)

Event Time Altitude Azimuth Distance (km) Brightness Sun altitude
Exits shadow 02:01:37 23° 311° (NW) 1,749 4.4 -31.5°
Drops below altitude 10° 02:05:18 10° 352° (N) 2,473 5.7 -31.1°
Sets 02:08:17 0° 6° (N) 3,411 6.8 -30.8°
